Terug naar catalogus

SL-8 DEB

LostLEO
NORAD 39692·DEBRIS·🇷🇺 Russia

Gelanceerd Feb 12, 1991 vanaf Plesetsk Cosmodrome

Loading…

Volgende Passages (komende 24 uur)

TLE

VerouderdSource: Space-Track

Epoch: May 14, 2025, 17:27 UTC

1 39692U 91009DF  25134.72774287  .00000525  00000-0  40208-2 0  9995
2 39692  74.0931 259.5369 0097005 202.1652 157.5187 12.39350746500608

Volg SL-8 DEB in realtime met AllMySat

Download on the App Store